Weather History for KCBE - March, 2013

Change the Weather History Date:

Friday, March 29, 2013

  Actual Average (KMRB) Record (KMRB)
Temperature  
Mean Temperature 43 °F 47 °F  
Max Temperature 53 °F 58 °F 87 °F (1945)
Min Temperature 33 °F 36 °F 17 °F (1959)
Degree Days  
Heating Degree Days 22 19  
Month to date heating degree days 679  
Since 1 July heating degree days 4635  
Cooling Degree Days 0 0  
Month to date cooling degree days 0  
Year to date cooling degree days 0  
Moisture  
Dew Point 30 °F    
Average Humidity 63    
Maximum Humidity 93    
Minimum Humidity 38    
Precipitation  
Precipitation 0.00 in 0.12 in 1.59 in (1984)
Month to date precipitation 3.27  
Year to date precipitation 8.05  
Sea Level Pressure  
Sea Level Pressure 30.25 in    
Wind  
Wind Speed 2 mph (WNW)    
Max Wind Speed 14 mph    
Max Gust Speed 22 mph    
Visibility 10 miles    
Events      
T = Trace of Precipitation, MM = Missing Value Source: NWS Daily Summary

Daily Weather History Graph

Daily Weather History Graph

Search for Another Location

Airport or City:

Trip Planner

Search our weather history database for the weather conditions in past years. The results will help you decide how hot, cold, wet, or windy it might be!

Date:

Astronomy

Mar. 29, 2013 Rise Set
Actual Time 7:03 AM EDT 7:36 PM EDT
Civil Twilight 6:36 AM EDT 8:03 PM EDT
Nautical Twilight 6:04 AM EDT 8:35 PM EDT
Astronomical Twilight 5:32 AM EDT 9:08 PM EDT
Moon 10:33 PM EDT (3/29) 8:11 AM EDT (3/29)
Length of Visible Light 13h 26m
Length of Day
12h 32m
Waning Gibbous, 93% of the Moon is Illuminated
Mar 29
Waning Gibbous
Apr 3
Last Quarter
Apr 10
New
Apr 18
First Quarter
Apr 25
Full

Hourly Weather History & Observations

Time (EDT) Temp. Windchill Dew Point Humidity Pressure Visibility Wind Dir Wind Speed Gust Speed Precip Events Conditions
12:09 AM 41.0 °F - 32.0 °F 70% 30.28 in 10.0 mi Calm Calm - N/A   Overcast
12:29 AM 41.0 °F - 32.0 °F 70% 30.28 in 10.0 mi Calm Calm - N/A   Overcast
12:49 AM 41.0 °F - 32.0 °F 70% 30.28 in 10.0 mi Calm Calm - N/A   Overcast
1:09 AM 41.0 °F - 32.0 °F 70% 30.27 in 10.0 mi Calm Calm - N/A   Overcast
1:29 AM 41.0 °F - 32.0 °F 70% 30.28 in 10.0 mi Calm Calm - N/A   Overcast
1:49 AM 39.2 °F - 32.0 °F 75% 30.28 in 10.0 mi Calm Calm - N/A   Overcast
2:09 AM 39.2 °F - 32.0 °F 75% 30.28 in 10.0 mi Calm Calm - N/A   Overcast
2:29 AM 37.4 °F - 32.0 °F 81% 30.29 in 10.0 mi Calm Calm - N/A   Overcast
2:49 AM 39.2 °F - 32.0 °F 75% 30.28 in 10.0 mi Calm Calm - N/A   Overcast
3:09 AM 37.4 °F - 32.0 °F 81% 30.28 in 10.0 mi Calm Calm - N/A   Overcast
3:29 AM 37.4 °F - 32.0 °F 81% 30.28 in 10.0 mi Calm Calm - N/A   Overcast
3:49 AM 37.4 °F - 32.0 °F 81% 30.28 in 10.0 mi Calm Calm - N/A   Overcast
4:10 AM 37.4 °F - 32.0 °F 81% 30.27 in 10.0 mi Calm Calm - N/A   Mostly Cloudy
4:30 AM 35.6 °F - 32.0 °F 87% 30.27 in 10.0 mi Calm Calm - N/A   Scattered Clouds
4:50 AM 35.6 °F - 32.0 °F 87% 30.28 in 10.0 mi Calm Calm - N/A   Mostly Cloudy
5:10 AM 33.8 °F - 32.0 °F 93% 30.28 in 10.0 mi Calm Calm - N/A   Overcast
5:30 AM 33.8 °F - 32.0 °F 93% 30.28 in 10.0 mi Calm Calm - N/A   Overcast
5:50 AM 33.8 °F - 32.0 °F 93% 30.28 in 10.0 mi Calm Calm - N/A   Overcast
6:10 AM 33.8 °F - 32.0 °F 93% 30.28 in 10.0 mi Calm Calm - N/A   Overcast
6:30 AM 33.8 °F - 32.0 °F 93% 30.28 in 10.0 mi Calm Calm - N/A   Overcast
6:50 AM 33.8 °F - 32.0 °F 93% 30.28 in 10.0 mi Calm Calm - N/A   Overcast
7:10 AM 33.8 °F - 32.0 °F 93% 30.28 in 10.0 mi Calm Calm - N/A   Overcast
7:30 AM 33.8 °F - 32.0 °F 93% 30.28 in 10.0 mi Calm Calm - N/A   Overcast
7:50 AM 33.8 °F - 32.0 °F 93% 30.29 in 10.0 mi Calm Calm - N/A   Overcast
8:10 AM 33.8 °F - 32.0 °F 93% 30.29 in 10.0 mi Calm Calm - N/A   Overcast
8:30 AM 33.8 °F - 32.0 °F 93% 30.29 in 10.0 mi Calm Calm - N/A   Overcast
8:50 AM 35.6 °F - 32.0 °F 87% 30.29 in 10.0 mi Calm Calm - N/A   Mostly Cloudy
9:10 AM 35.6 °F - 32.0 °F 87% 30.29 in 10.0 mi Calm Calm - N/A   Mostly Cloudy
9:30 AM 37.4 °F - 33.8 °F 87% 30.29 in 10.0 mi Calm Calm - N/A   Mostly Cloudy
9:50 AM 37.4 °F - 33.8 °F 87% 30.29 in 10.0 mi Calm Calm - N/A   Scattered Clouds
10:10 AM 41.0 °F - 33.8 °F 76% 30.29 in 10.0 mi Calm Calm - N/A   Scattered Clouds
10:30 AM 42.8 °F - 32.0 °F 66% 30.28 in 10.0 mi Calm Calm - N/A   Scattered Clouds
10:50 AM 44.6 °F - 32.0 °F 61% 30.28 in 10.0 mi Calm Calm - N/A   Scattered Clouds
11:10 AM 46.4 °F - 32.0 °F 57% 30.28 in 10.0 mi Calm Calm - N/A   Scattered Clouds
11:30 AM 48.2 °F - 32.0 °F 54% 30.27 in 10.0 mi Calm Calm - N/A   Scattered Clouds
11:50 AM 48.2 °F - 32.0 °F 54% 30.27 in 10.0 mi SSE 4.6 mph - N/A   Mostly Cloudy
12:10 PM 50.0 °F - 32.0 °F 50% 30.26 in 10.0 mi South 3.5 mph - N/A   Mostly Cloudy
12:30 PM 50.0 °F - 30.2 °F 47% 30.25 in 10.0 mi NNW 8.1 mph - N/A   Mostly Cloudy
12:51 PM 50.0 °F - 28.4 °F 43% 30.25 in 10.0 mi NNW 11.5 mph - N/A   Mostly Cloudy
1:11 PM 50.0 °F - 28.4 °F 43% 30.24 in 10.0 mi NW 9.2 mph - N/A   Scattered Clouds
1:31 PM 50.0 °F - 28.4 °F 43% 30.24 in 10.0 mi West 4.6 mph - N/A   Scattered Clouds
1:51 PM 50.0 °F - 28.4 °F 43% 30.24 in 10.0 mi NW 9.2 mph - N/A   Scattered Clouds
2:11 PM 50.0 °F - 28.4 °F 43% 30.23 in 10.0 mi NNW 10.4 mph 16.1 mph N/A   Scattered Clouds
2:31 PM 51.8 °F - 28.4 °F 41% 30.22 in 10.0 mi NNE 3.5 mph - N/A   Scattered Clouds
2:51 PM 51.8 °F - 28.4 °F 41% 30.22 in 10.0 mi West 11.5 mph - N/A   Scattered Clouds
3:11 PM 51.8 °F - 28.4 °F 41% 30.21 in 10.0 mi North 6.9 mph - N/A   Clear
3:31 PM 53.6 °F - 28.4 °F 38% 30.20 in 10.0 mi West 3.5 mph - N/A   Clear
3:51 PM 51.8 °F - 28.4 °F 41% 30.20 in 10.0 mi West 13.8 mph 21.9 mph N/A   Scattered Clouds
4:11 PM 51.8 °F - 28.4 °F 41% 30.19 in 10.0 mi NW 6.9 mph - N/A   Scattered Clouds
4:31 PM 50.0 °F - 28.4 °F 43% 30.19 in 10.0 mi WNW 6.9 mph 20.7 mph N/A   Scattered Clouds
4:51 PM 51.8 °F - 28.4 °F 41% 30.19 in 10.0 mi NNW 8.1 mph - N/A   Scattered Clouds
5:11 PM 51.8 °F - 28.4 °F 41% 30.18 in 10.0 mi NNW 6.9 mph 16.1 mph N/A   Scattered Clouds
5:31 PM 50.0 °F - 26.6 °F 40% 30.18 in 10.0 mi NNW 8.1 mph - N/A   Clear
5:51 PM 51.8 °F - 26.6 °F 38% 30.18 in 10.0 mi NW 9.2 mph - N/A   Clear
6:11 PM 51.8 °F - 26.6 °F 38% 30.18 in 10.0 mi West 8.1 mph 17.3 mph N/A   Clear
6:31 PM 51.8 °F - 26.6 °F 38% 30.19 in 10.0 mi NW 8.1 mph - N/A   Scattered Clouds
6:51 PM 51.8 °F - 26.6 °F 38% 30.19 in 10.0 mi West 6.9 mph - N/A   Scattered Clouds
7:11 PM 51.8 °F - 26.6 °F 38% 30.19 in 10.0 mi West 9.2 mph 16.1 mph N/A   Scattered Clouds
7:31 PM 50.0 °F - 26.6 °F 40% 30.19 in 10.0 mi West 4.6 mph - N/A   Scattered Clouds
7:51 PM 50.0 °F - 26.6 °F 40% 30.20 in 10.0 mi West 6.9 mph - N/A   Scattered Clouds
8:11 PM 48.2 °F - 26.6 °F 43% 30.20 in 10.0 mi West 4.6 mph - N/A   Clear
8:31 PM 46.4 °F 44.3 °F 26.6 °F 46% 30.20 in 10.0 mi WSW 4.6 mph - N/A   Clear
8:51 PM 46.4 °F - 26.6 °F 46% 30.21 in 10.0 mi Calm Calm - N/A   Scattered Clouds
9:11 PM 46.4 °F 43.5 °F 26.6 °F 46% 30.22 in 10.0 mi WSW 5.8 mph - N/A   Clear
9:32 PM 46.4 °F 45.2 °F 26.6 °F 46% 30.22 in 10.0 mi West 3.5 mph - N/A   Scattered Clouds
9:52 PM 44.6 °F - 26.6 °F 49% 30.23 in 10.0 mi Calm Calm - N/A   Clear
10:12 PM 42.8 °F - 26.6 °F 53% 30.23 in 10.0 mi Calm Calm - N/A   Clear
10:32 PM 41.0 °F - 28.4 °F 61% 30.23 in 10.0 mi Calm Calm - N/A   Clear
10:52 PM 41.0 °F - 26.6 °F 57% 30.23 in 10.0 mi Calm Calm - N/A   Clear
11:12 PM 37.4 °F - 28.4 °F 70% 30.23 in 10.0 mi Calm Calm - N/A   Clear
11:32 PM 37.4 °F - 28.4 °F 70% 30.23 in 10.0 mi Calm Calm - N/A   Clear
11:52 PM 37.4 °F - 28.4 °F 70% 30.23 in 10.0 mi Calm Calm - N/A   Scattered Clouds